[[{"header":{"parameterUnit":"m.s-1","parameterCategory":1,"la1":30.2991,"la2":30.254,"lo1":-89.0895,"lo2":-89.0444,"dy":0.0017,"dx":0.0017,"nx":28,"ny":28,"refTime":"2024-08-02T03:00:00:Z","depth":0,"parameterNumber":2,"parameterNumberName":"U-component_of_WINDS"},"data":[0,0,0,0,0,0,0,0,0,0,0,0,0,0,0,0,0,0,0,0,0,0,0,0,0,0,0,0,0,0,0,0,0,0,0,0,0,0,0,0,0,0,0,0,0,0,0,0,0,0,0,0,0,0,0,0,0,0,1.839,1.839,0,1.8465,1.8466,1.8467,1.8467,1.8466,1.8465,1.8465,1.8547,1.855,1.8553,0,0,0,0,0,0,0,0,0,0,0,0,0,1.825,1.8253,1.8389,1.839,1.8391,1.8465,1.8466,1.8467,1.8468,1.8466,1.8465,1.8464,1.8546,1.8549,1.8553,0,0,0,0,0,0,0,0,0,0,0,0,0,1.8317,1.8254,1.8389,1.84,1.8402,1.8465,1.8466,1.8467,1.8468,1.8466,1.8465,1.8464,1.8544,1.8549,1.8553,1.8612,0,0,1.8568,1.857,0,0,0,0,0,0,0,0,1.8313,1.8322,1.8398,1.84,1.8402,1.8455,1.8447,1.8516,1.8468,1.8443,1.8464,1.8463,1.8518,1.8524,1.8542,1.8615,1.8619,1.8568,1.8571,1.8573,1.8574,0,0,0,0,0,0,0,1.8309,1.8319,1.842,1.8399,1.8401,1.8403,1.8411,1.846,1.8488,1.8445,1.8445,1.8454,1.8519,1.8537,1.8544,1.862,1.8568,1.8572,1.8575,1.8577,1.8746,1.8748,0,0,0,0,0,0,1.8301,1.8315,1.8417,1.8422,1.8353,1.8407,1.8416,1.844,1.8487,1.8493,1.8455,1.8454,1.853,1.8538,1.8547,1.8618,1.8573,1.8577,1.858,1.8745,1.8747,1.8749,0,0,0,0,0,0,1.8298,1.831,1.8414,1.8369,1.8382,1.8411,1.8438,1.8442,1.8461,1.8495,1.85,1.8469,1.8529,1.854,1.8595,1.8621,1.8579,1.8583,1.8743,1.8745,1.8748,1.8762,0,0,0,0,0,0,1.8294,1.8309,1.833,1.8369,1.8384,1.846,1.8439,1.8444,1.8468,1.8467,1.8509,1.8515,1.8529,1.8588,1.86,1.8627,1.8587,1.874,1.8744,1.8747,1.8759,1.8765,1.8769,0,0,0,0,0,1.8289,1.8332,1.8331,1.8344,1.8411,1.8461,1.847,1.8484,1.847,1.8493,1.8515,1.8514,1.8617,1.8594,1.8607,1.8636,1.8739,1.8743,1.8747,1.8757,1.8763,1.8769,0,0,0,0,0,0,1.8297,1.8337,1.8337,1.8393,1.8424,1.8461,1.849,1.8491,1.8527,1.8524,1.8542,1.8552,1.8607,1.8627,1.8601,1.8695,1.8676,1.8683,1.868,1.8686,1.8691,1.8685,1.8591,0,0,0,0,0,1.8305,1.8341,1.8375,1.8421,1.8436,1.846,1.8483,1.8491,1.8524,1.8537,1.8563,1.8597,1.8637,1.8663,1.8701,1.8762,1.8772,1.8789,1.8794,1.8798,1.8803,1.8838,1.8846,1.8761,1.8761,1.8761,0,0,1.8322,1.8348,1.837,1.8423,1.8448,1.8486,1.8471,1.8512,1.8542,1.8544,1.8597,1.8618,1.8656,1.8715,1.8742,1.8733,1.8829,1.8802,1.8805,1.8809,1.8843,1.8851,1.8858,1.8764,1.8763,1.8763,0,0,1.8373,1.8396,1.8438,1.8463,1.85,1.8516,1.8526,1.8563,1.8577,1.863,1.8633,1.8669,1.8737,1.8765,1.8787,1.885,1.8851,1.8862,1.8889,1.8922,1.8929,1.8935,1.8958,1.8966,1.8868,1.8868,1.8868,0,1.839,1.8446,1.8459,1.85,1.8524,1.8527,1.8571,1.8595,1.8643,1.866,1.865,1.8736,1.8762,1.8827,1.8842,1.8861,1.8874,1.8857,1.8926,1.8933,1.8939,1.896,1.8969,1.8869,1.8869,1.8869,1.8869,0,1.8466,1.8505,1.8535,1.858,1.8607,1.8649,1.867,1.8697,1.8703,1.872,1.8776,1.8807,1.8853,1.8869,1.8876,1.8936,1.8929,1.8922,1.8904,1.8947,1.8968,1.8977,1.8871,1.887,1.887,1.887,0,0,1.8523,1.8575,1.8586,1.8607,1.8649,1.868,1.8723,1.8766,1.8789,1.8823,1.886,1.8918,1.8912,1.8938,1.8949,1.8978,1.9026,1.8968,1.8969,1.8978,1.9095,1.9099,1.9109,1.9027,1.9029,1.903,1.9092,0,1.8578,1.8653,1.8667,1.8732,1.877,1.8774,1.8812,1.8842,1.886,1.8895,1.8916,1.8957,1.8946,1.8962,1.8991,1.9014,1.905,1.901,1.9063,1.9065,1.9053,1.912,1.9125,1.9181,1.91,1.9101,1.9102,0,1.8653,1.8687,1.8756,1.8794,1.881,1.8843,1.8884,1.8918,1.8954,1.8965,1.8994,1.9001,1.9048,1.9027,1.9092,1.9064,1.9087,1.9102,1.9105,1.911,1.9086,1.9127,1.92,1.9208,1.9115,1.9114,1.9113,0,1.8688,1.8752,1.8801,1.8819,1.8864,1.8888,1.8908,1.8942,1.8967,1.9004,1.9021,1.9063,1.9086,1.9119,1.9138,1.9121,1.9202,1.9183,1.9213,1.9213,1.923,1.9228,1.9307,1.9245,1.9245,1.9244,1.9244,0,1.8748,1.879,1.8818,1.8848,1.8896,1.8913,1.896,1.898,1.9011,1.9046,1.9053,1.9087,1.911,1.9147,1.9163,1.9215,1.9225,1.9236,1.924,1.9236,1.9234,1.9251,1.9247,1.9247,1.9246,1.9246,1.9245,0,1.8795,1.8815,1.8869,1.8907,1.8918,1.8952,1.8985,1.9016,1.9034,1.9079,1.9091,1.912,1.9165,1.9187,1.9243,1.9253,1.9312,1.9313,1.9299,1.9301,1.933,1.9327,1.9422,1.9435,1.9364,1.9365,1.9365,0,1.8832,1.8864,1.8906,1.8929,1.895,1.8988,1.9014,1.9032,1.9059,1.9102,1.9128,1.9173,1.9209,1.9281,1.9308,1.9351,1.9353,1.9383,1.936,1.9354,1.9354,1.9351,1.9355,1.9387,1.9388,1.9389,1.9389,0,1.8895,1.8904,1.894,1.898,1.901,1.9043,1.9075,1.9095,1.9118,1.9148,1.9193,1.9222,1.9278,1.9323,1.9368,1.939,1.9394,1.9396,1.9406,1.9401,1.9392,1.9398,1.9311,1.9394,1.9394,1.9393,1.9393,1.9393,1.8938,1.8968,1.9001,1.9042,1.9068,1.9098,1.9129,1.9151,1.9188,1.9235,1.9244,1.9292,1.9328,1.9389,1.9413,1.9452,1.9445,1.9459,1.9462,1.9465,1.9466,1.9386,1.946,1.946,1.946,1.946,1.946,0,1.9002,1.9024,1.9061,1.9106,1.9138,1.9138,1.9174,1.9201,1.9243,1.9276,1.9312,1.9364,1.9407,1.9438,1.9483,1.9508,1.9511,1.9519,1.9517,1.9522,1.947,1.9457,1.9516,1.9516,1.9516,1.9516,1.9516,1.9516,1.9039,1.9089,1.9102,1.9165,1.9187,1.9233,1.9254,1.9283,1.9309,1.9366,1.9402,1.9422,1.9454,1.9501,1.9542,1.955,1.9566,1.9574,1.9582,1.9532,1.9526,1.952,1.9509,1.9577,1.9578,1.9632,1.9632,1.9632]},{"header":{"parameterUnit":"m.s-1","parameterCategory":1,"la1":30.2991,"la2":30.254,"lo1":-89.0895,"lo2":-89.0444,"dy":0.0017,"dx":0.0017,"nx":28,"ny":28,"refTime":"2024-08-02T03:00:00:Z","depth":0,"parameterNumber":3,"parameterNumberName":"V-component_of_WINDS"},"data":[0,0,0,0,0,0,0,0,0,0,0,0,0,0,0,0,0,0,0,0,0,0,0,0,0,0,0,0,0,0,0,0,0,0,0,0,0,0,0,0,0,0,0,0,0,0,0,0,0,0,0,0,0,0,0,0,0,0,3.9078,3.908,0,3.9203,3.9204,3.9206,3.9206,3.9204,3.9203,3.9201,3.9323,3.9328,3.9333,0,0,0,0,0,0,0,0,0,0,0,0,0,3.8832,3.8837,3.9078,3.908,3.9082,3.9203,3.9205,3.9206,3.9206,3.9204,3.9202,3.92,3.9322,3.9327,3.9333,0,0,0,0,0,0,0,0,0,0,0,0,0,3.8946,3.8838,3.9078,3.9096,3.9099,3.9202,3.9205,3.9207,3.9206,3.9204,3.9202,3.9199,3.932,3.9327,3.9334,3.9426,0,0,3.9356,3.9359,0,0,0,0,0,0,0,0,3.894,3.8955,3.9092,3.9095,3.9099,3.9187,3.9163,3.928,3.9207,3.9166,3.9201,3.9198,3.9279,3.929,3.9318,3.9432,3.9437,3.9356,3.9361,3.9364,3.9366,0,0,0,0,0,0,0,3.8932,3.895,3.9128,3.9094,3.9098,3.9095,3.9109,3.9185,3.9234,3.9169,3.9169,3.9184,3.9281,3.9311,3.9321,3.9439,3.9356,3.9362,3.9367,3.937,3.9628,3.9631,0,0,0,0,0,0,3.8921,3.8943,3.9124,3.9131,3.9012,3.9102,3.9117,3.9161,3.9233,3.9242,3.9186,3.9184,3.93,3.9313,3.9325,3.9435,3.9364,3.937,3.9374,3.9626,3.9629,3.9632,0,0,0,0,0,0,3.8916,3.8937,3.9119,3.9037,3.906,3.9109,3.9158,3.9164,3.9195,3.9247,3.9255,3.9209,3.9299,3.9315,3.94,3.9439,3.9373,3.938,3.9623,3.9627,3.963,3.9656,0,0,0,0,0,0,3.8909,3.8935,3.8973,3.9038,3.9065,3.9194,3.916,3.9168,3.9208,3.9206,3.927,3.9278,3.9298,3.9389,3.9407,3.9447,3.9386,3.962,3.9625,3.9629,3.9652,3.966,3.9667,0,0,0,0,0,3.89,3.8975,3.8975,3.8997,3.9113,3.9196,3.9211,3.9234,3.9211,3.9248,3.928,3.9276,3.9432,3.9398,3.9418,3.9461,3.9617,3.9623,3.9629,3.9648,3.9658,3.9667,0,0,0,0,0,0,3.8912,3.8984,3.8985,3.9084,3.9134,3.9196,3.9243,3.9245,3.9301,3.9297,3.9321,3.9336,3.9419,3.9449,3.941,3.9551,3.9521,3.9531,3.9529,3.9539,3.9547,3.9537,3.9391,0,0,0,0,0,3.8927,3.8991,3.9049,3.913,3.9156,3.9195,3.9232,3.9245,3.9297,3.9318,3.9357,3.9406,3.9465,3.9504,3.9562,3.9656,3.9667,3.9695,3.9703,3.9709,3.9717,3.9764,3.9775,3.9651,3.9651,3.9651,0,0,3.8957,3.9004,3.9043,3.9134,3.9174,3.9236,3.9213,3.9281,3.9326,3.9328,3.941,3.944,3.9496,3.9584,3.9625,3.9611,3.9753,3.9716,3.9721,3.9725,3.9771,3.9783,3.9793,3.9655,3.9654,3.9654,0,0,3.9043,3.9087,3.9157,3.9198,3.926,3.9285,3.9301,3.9363,3.9383,3.9466,3.9467,3.952,3.9624,3.9662,3.9695,3.9792,3.9789,3.981,3.985,3.9895,3.9905,3.9914,3.9945,3.9956,3.9818,3.9818,3.9818,0,3.9072,3.9169,3.9193,3.9261,3.9299,3.9304,3.9373,3.9411,3.9488,3.9512,3.9496,3.9623,3.9662,3.9757,3.978,3.9808,3.9825,3.9802,3.9902,3.9911,3.992,3.9949,3.9961,3.982,3.982,3.9819,3.9819,0,3.9199,3.9265,3.9315,3.9389,3.9433,3.9501,3.9533,3.9574,3.9582,3.9608,3.9689,3.9735,3.98,3.9824,3.9834,3.992,3.9909,3.9898,3.9867,3.9933,3.9961,3.9973,3.9823,3.9822,3.9821,3.9821,0,0,3.9297,3.9383,3.94,3.9432,3.9499,3.9549,3.9615,3.968,3.9713,3.9765,3.9818,3.9904,3.9892,3.993,3.9943,3.9983,4.0052,3.9966,3.9968,3.9978,4.0145,4.0151,4.0164,4.0051,4.0053,4.0055,4.0139,0,3.9388,3.9509,3.9531,3.9634,3.9693,3.9697,3.9754,3.9799,3.9824,3.9875,3.9902,3.9961,3.9944,3.9966,4.0006,4.0035,4.0085,4.003,4.0097,4.0099,4.0081,4.018,4.0188,4.0265,4.015,4.0152,4.0154,0,3.9511,3.9566,3.9675,3.973,3.9755,3.9807,3.9866,3.9916,3.9966,3.9981,4.0021,4.0028,4.0093,4.0061,4.0149,4.011,4.0139,4.0157,4.0161,4.0166,4.0129,4.0185,4.0291,4.0301,4.0172,4.017,4.0169,0,3.9567,3.9668,3.9746,3.9773,3.9841,3.9876,3.9905,3.9952,3.9989,4.0039,4.0062,4.012,4.015,4.0193,4.0214,4.0189,4.0299,4.0269,4.031,4.0309,4.0332,4.033,4.0441,4.0354,4.0354,4.0354,4.0354,0,3.9665,3.9731,3.9771,3.9819,3.9891,3.9915,3.9985,4.0013,4.0054,4.0104,4.0111,4.0158,4.0184,4.0234,4.025,4.0318,4.0333,4.0344,4.0347,4.0342,4.034,4.036,4.0354,4.0357,4.0356,4.0356,4.0355,0,3.974,3.9771,3.9854,3.9911,3.9926,3.9976,4.0023,4.0067,4.0091,4.0154,4.017,4.0207,4.0265,4.0291,4.0363,4.0373,4.045,4.045,4.0433,4.0434,4.0472,4.0466,4.0597,4.0614,4.0519,4.052,4.0521,0,3.9799,3.985,3.9911,3.9945,3.9976,4.0032,4.0069,4.0092,4.013,4.0188,4.0224,4.0282,4.033,4.0422,4.0453,4.0507,4.0507,4.0549,4.0515,4.0507,4.0504,4.05,4.0503,4.0555,4.0556,4.0556,4.0557,0,3.99,3.9911,3.9965,4.0023,4.0067,4.0113,4.0159,4.0186,4.0216,4.0257,4.0317,4.0354,4.0426,4.0483,4.0538,4.0564,4.0564,4.0568,4.0579,4.0573,4.056,4.0564,4.0447,4.0564,4.0563,4.0563,4.0563,4.0562,3.9967,4.001,4.0059,4.0117,4.0154,4.0195,4.0239,4.0267,4.0318,4.038,4.039,4.0453,4.0497,4.0571,4.0599,4.0646,4.0636,4.0653,4.0657,4.0661,4.0661,4.0554,4.0656,4.0656,4.0656,4.0656,4.0656,0,4.0065,4.0096,4.0149,4.0212,4.0257,4.0255,4.0304,4.0341,4.0396,4.0438,4.0485,4.0551,4.0605,4.064,4.0693,4.0724,4.0725,4.0737,4.0734,4.0739,4.0669,4.0653,4.0735,4.0735,4.0735,4.0735,4.0735,4.0735,4.0121,4.0193,4.021,4.0299,4.0329,4.0392,4.0419,4.0456,4.0489,4.0563,4.0609,4.0631,4.0669,4.0725,4.0773,4.0781,4.0799,4.0811,4.0819,4.0753,4.0744,4.0736,4.0721,4.0816,4.0816,4.0884,4.0885,4.0885]}]]